MAS604 WSSS-WMKK

Flight info

Callsign MAS604
Flight time 0h 30m
Altitude 26000
Route MASBO5B MASBO A457 GUPTA GUPTA1H
Aircraft B38M/M-SDE1FGHILORVWXY/HB1

Departure

Time 2026-05-05 10:21
Airport Singapore Changi Airport (WSSS)

Arrival

Time 2026-05-05 10:51
Airport Kuala Lumpur International Airport (WMKK)
Time Latitude Longitude Altitude Speed Heading
2026-05-05 10:10 1.35321 103.99131 35 ft 0 kts 228°
2026-05-05 10:14 1.35332 103.99144 35 ft 4 kts 228°
2026-05-05 10:14 1.35345 103.99157 35 ft 4 kts 227°
2026-05-05 10:15 1.35360 103.99174 35 ft 4 kts 221°
2026-05-05 10:15 1.35382 103.99186 35 ft 4 kts 181°
2026-05-05 10:15 1.35404 103.99178 35 ft 4 kts 133°
2026-05-05 10:15 1.35415 103.99162 35 ft 0 kts 113°
2026-05-05 10:17 1.35412 103.99169 35 ft 4 kts 113°
2026-05-05 10:18 1.35386 103.99229 35 ft 14 kts 113°
2026-05-05 10:18 1.35363 103.99333 35 ft 16 kts 65°
2026-05-05 10:18 1.35463 103.99389 35 ft 18 kts 22°
2026-05-05 10:18 1.35593 103.99443 35 ft 22 kts 22°
2026-05-05 10:19 1.35737 103.99504 35 ft 23 kts 22°
2026-05-05 10:19 1.35876 103.99564 35 ft 19 kts 34°
2026-05-05 10:19 1.35886 103.99650 34 ft 10 kts 138°
2026-05-05 10:19 1.35824 103.99665 35 ft 10 kts 175°
2026-05-05 10:20 1.35749 103.99672 35 ft 12 kts 175°
2026-05-05 10:20 1.35648 103.99666 36 ft 21 kts 195°
2026-05-05 10:20 1.35344 103.99539 36 ft 84 kts 203°
2026-05-05 10:20 1.34592 103.99225 35 ft 147 kts 200°
2026-05-05 10:21 1.33527 103.98743 302 ft 177 kts 205°
2026-05-05 10:21 1.32402 103.98272 1138 ft 172 kts 202°
2026-05-05 10:21 1.31333 103.97728 1787 ft 181 kts 223°
2026-05-05 10:21 1.30736 103.96565 2248 ft 204 kts 262°
2026-05-05 10:22 1.30998 103.95103 2716 ft 228 kts 302°
2026-05-05 10:22 1.32067 103.93856 3371 ft 246 kts 309°
2026-05-05 10:22 1.33073 103.92398 4021 ft 263 kts 303°
2026-05-05 10:22 1.34088 103.90839 4816 ft 272 kts 303°
2026-05-05 10:23 1.35128 103.89278 5740 ft 275 kts 304°
2026-05-05 10:23 1.36209 103.87674 6628 ft 280 kts 304°
2026-05-05 10:23 1.37310 103.86053 7457 ft 284 kts 304°
2026-05-05 10:23 1.38433 103.84411 8311 ft 288 kts 304°
2026-05-05 10:24 1.39572 103.82749 9153 ft 292 kts 304°
2026-05-05 10:24 1.40732 103.81060 9981 ft 297 kts 304°
2026-05-05 10:24 1.41921 103.79326 10544 ft 310 kts 304°
2026-05-05 10:24 1.43171 103.77485 10871 ft 330 kts 304°
2026-05-05 10:25 1.44497 103.75526 11180 ft 349 kts 304°
2026-05-05 10:25 1.45890 103.73474 11601 ft 361 kts 304°
2026-05-05 10:25 1.47320 103.71377 12197 ft 366 kts 304°
2026-05-05 10:25 1.48766 103.69273 12829 ft 369 kts 304°
2026-05-05 10:26 1.50230 103.67144 13444 ft 373 kts 305°
2026-05-05 10:26 1.51691 103.65020 13987 ft 377 kts 305°
2026-05-05 10:26 1.53178 103.62861 14520 ft 380 kts 305°
2026-05-05 10:26 1.54685 103.60672 15052 ft 383 kts 305°
2026-05-05 10:27 1.56200 103.58472 15564 ft 386 kts 305°
2026-05-05 10:27 1.57731 103.56248 16079 ft 389 kts 306°
2026-05-05 10:27 1.59280 103.54003 16571 ft 392 kts 305°
2026-05-05 10:27 1.60831 103.51750 17053 ft 395 kts 306°
2026-05-05 10:28 1.62395 103.49477 17520 ft 398 kts 306°
2026-05-05 10:28 1.63970 103.47190 17974 ft 401 kts 306°
2026-05-05 10:28 1.65560 103.44881 18367 ft 404 kts 306°
2026-05-05 10:28 1.67163 103.42551 18744 ft 406 kts 306°
2026-05-05 10:29 1.68766 103.40222 19129 ft 408 kts 306°
2026-05-05 10:29 1.70383 103.37874 19495 ft 411 kts 306°
2026-05-05 10:29 1.71986 103.35546 19859 ft 413 kts 306°
2026-05-05 10:29 1.73619 103.33174 20236 ft 415 kts 306°
2026-05-05 10:30 1.75262 103.30788 20606 ft 417 kts 306°
2026-05-05 10:30 1.76915 103.28386 20979 ft 420 kts 306°
2026-05-05 10:30 1.78573 103.25978 21345 ft 422 kts 306°
2026-05-05 10:30 1.80248 103.23545 21708 ft 424 kts 306°
2026-05-05 10:31 1.81924 103.21110 22064 ft 427 kts 306°
2026-05-05 10:31 1.83617 103.18653 22428 ft 429 kts 306°
2026-05-05 10:31 1.85308 103.16195 22794 ft 431 kts 306°
2026-05-05 10:31 1.87017 103.13713 23154 ft 434 kts 306°
2026-05-05 10:32 1.88729 103.11226 23484 ft 436 kts 306°
2026-05-05 10:32 1.90459 103.08714 23737 ft 440 kts 306°
2026-05-05 10:32 1.92180 103.06212 23794 ft 447 kts 306°
2026-05-05 10:32 1.93954 103.03632 23796 ft 454 kts 306°
2026-05-05 10:33 1.95763 103.01003 23795 ft 461 kts 306°
2026-05-05 10:33 1.97594 102.98342 23798 ft 468 kts 306°
2026-05-05 10:33 1.99448 102.95649 23800 ft 473 kts 306°
2026-05-05 10:33 2.01324 102.92927 23803 ft 478 kts 306°
2026-05-05 10:34 2.03219 102.90176 23800 ft 482 kts 306°
2026-05-05 10:34 2.05021 102.87327 23806 ft 486 kts 298°
2026-05-05 10:34 2.06517 102.84282 23813 ft 489 kts 297°
2026-05-05 10:34 2.08009 102.81227 23813 ft 490 kts 297°
2026-05-05 10:35 2.09501 102.78170 23814 ft 489 kts 297°
2026-05-05 10:35 2.10995 102.75109 23813 ft 489 kts 297°
2026-05-05 10:35 2.12485 102.72055 23813 ft 489 kts 297°
2026-05-05 10:35 2.13957 102.69037 23802 ft 473 kts 297°
2026-05-05 10:36 2.15388 102.66105 23222 ft 468 kts 297°
2026-05-05 10:36 2.16871 102.63272 22387 ft 462 kts 298°
2026-05-05 10:36 2.18072 102.60297 21564 ft 463 kts 288°
2026-05-05 10:36 2.18963 102.57209 20776 ft 460 kts 286°
2026-05-05 10:37 2.19813 102.54145 20018 ft 455 kts 286°
2026-05-05 10:37 2.20652 102.51107 19265 ft 450 kts 286°
2026-05-05 10:37 2.21477 102.48116 18543 ft 445 kts 286°
2026-05-05 10:37 2.22299 102.45129 17773 ft 441 kts 286°
2026-05-05 10:38 2.23105 102.42203 16960 ft 435 kts 286°
2026-05-05 10:38 2.23906 102.39304 16158 ft 429 kts 286°
2026-05-05 10:38 2.24698 102.36444 15389 ft 423 kts 286°
2026-05-05 10:38 2.25480 102.33623 14629 ft 418 kts 286°
2026-05-05 10:39 2.26245 102.30864 14179 ft 403 kts 286°
2026-05-05 10:39 2.26972 102.28248 13752 ft 388 kts 286°
2026-05-05 10:39 2.27702 102.25701 13273 ft 374 kts 290°
2026-05-05 10:39 2.28720 102.23359 12778 ft 361 kts 296°
2026-05-05 10:40 2.29778 102.21126 12290 ft 351 kts 296°
2026-05-05 10:40 2.30811 102.18949 11806 ft 342 kts 296°
2026-05-05 10:40 2.31820 102.16817 11326 ft 334 kts 296°
2026-05-05 10:40 2.32795 102.14750 10882 ft 326 kts 296°
2026-05-05 10:41 2.33748 102.12734 10538 ft 315 kts 296°
2026-05-05 10:41 2.34670 102.10783 10193 ft 305 kts 296°
2026-05-05 10:41 2.35562 102.08897 9861 ft 296 kts 296°
2026-05-05 10:41 2.36434 102.07063 9492 ft 287 kts 297°
2026-05-05 10:42 2.38317 102.03640 8784 ft 278 kts 300°
2026-05-05 10:42 2.39262 102.01952 8453 ft 278 kts 300°
2026-05-05 10:42 2.40291 102.00328 8146 ft 277 kts 305°
2026-05-05 10:43 2.41372 101.98731 7840 ft 276 kts 305°
2026-05-05 10:43 2.42431 101.97165 7536 ft 275 kts 305°
2026-05-05 10:43 2.43496 101.95584 7221 ft 271 kts 305°
2026-05-05 10:43 2.44528 101.94046 6932 ft 262 kts 305°
2026-05-05 10:44 2.45544 101.92557 6606 ft 256 kts 309°
2026-05-05 10:44 2.46738 101.91273 6283 ft 248 kts 320°
2026-05-05 10:44 2.48083 101.90234 5938 ft 243 kts 326°
2026-05-05 10:44 2.49482 101.89273 5613 ft 244 kts 327°
2026-05-05 10:45 2.50890 101.88326 5301 ft 244 kts 328°
2026-05-05 10:45 2.52300 101.87378 4990 ft 244 kts 327°
2026-05-05 10:45 2.53703 101.86434 4664 ft 243 kts 327°
2026-05-05 10:45 2.55088 101.85502 4492 ft 235 kts 327°
2026-05-05 10:46 2.56438 101.84592 4208 ft 233 kts 327°
2026-05-05 10:46 2.57756 101.83704 3919 ft 227 kts 327°
2026-05-05 10:46 2.59053 101.82831 3613 ft 222 kts 327°
2026-05-05 10:46 2.60324 101.81974 3313 ft 218 kts 327°
2026-05-05 10:47 2.61550 101.81149 3044 ft 208 kts 327°
2026-05-05 10:47 2.62723 101.80358 2772 ft 199 kts 327°
2026-05-05 10:47 2.63855 101.79596 2517 ft 193 kts 326°
2026-05-05 10:47 2.64967 101.78847 2283 ft 191 kts 326°
2026-05-05 10:48 2.66038 101.78125 2034 ft 185 kts 326°
2026-05-05 10:48 2.67077 101.77425 1791 ft 175 kts 326°
2026-05-05 10:48 2.68072 101.76756 1582 ft 170 kts 326°
2026-05-05 10:48 2.69027 101.76113 1388 ft 162 kts 325°
2026-05-05 10:49 2.69952 101.75489 1165 ft 158 kts 325°
2026-05-05 10:49 2.70862 101.74873 975 ft 157 kts 326°
2026-05-05 10:49 2.71769 101.74273 770 ft 156 kts 327°
2026-05-05 10:49 2.72681 101.73674 569 ft 156 kts 326°
2026-05-05 10:50 2.73576 101.73066 388 ft 155 kts 326°
2026-05-05 10:50 2.74458 101.72466 217 ft 153 kts 327°
2026-05-05 10:50 2.75339 101.71878 80 ft 146 kts 327°
2026-05-05 10:50 2.76017 101.71412 71 ft 84 kts 327°
2026-05-05 10:51 2.76401 101.71156 70 ft 62 kts 322°
2026-05-05 10:51 2.76565 101.70944 66 ft 27 kts 300°
2026-05-05 10:51 2.76545 101.70842 65 ft 12 kts 195°
2026-05-05 10:51 2.76486 101.70869 68 ft 9 kts 145°
2026-05-05 10:52 2.76418 101.70903 65 ft 15 kts 140°
2026-05-05 10:52 2.76295 101.70993 66 ft 28 kts 157°
2026-05-05 10:52 2.76066 101.71062 71 ft 40 kts 167°
2026-05-05 10:52 2.75853 101.71142 71 ft 25 kts 195°
2026-05-05 10:53 2.75768 101.71039 70 ft 20 kts 235°
2026-05-05 10:53 2.75689 101.70919 75 ft 21 kts 236°
2026-05-05 10:53 2.75603 101.70810 70 ft 18 kts 211°
2026-05-05 10:53 2.75541 101.70812 69 ft 4 kts 145°
2026-05-05 10:54 2.75531 101.70820 68 ft 2 kts 145°
2026-05-05 10:54 2.75527 101.70822 69 ft 0 kts 145°